Regional Weather Roundup
Issued by NWS

Home | Current Version | Previous Version | Text Only | Print | Product List | Glossary On
Versions: 1 2 3 4 5 6 7 8 9 10 11 12 13 14 15 16 17 18 19 20 21 22 23 24 25 26 27 28 29 30 31 32 33 34 35 36 37 38 39 40 41 42 43 44 45 46 47 48 49 50
000
ASUS44 KJAN 190310
RWRMS

MISSISSIPPI HOURLY WEATHER ROUNDUP
NATIONAL WEATHER SERVICE JACKSON MS
1000 PM CDT THU SEP 18 2014

NOTE: "FAIR: INDICATES FEW OR NO CLOUDS BELOW 12,000 FEET WITH NO
SIGNIFICANT WEATHER AND/OR OBSTRUCTIONS TO VISIBILITY.

MSZ001>002-007>008-010>013-018>021-025>028-034>036-190400-
NORTHWEST MISSISSIPPI

CITY           SKY/WX    TMP DP  RH WIND       PRES   REMARKS
CLARKSDALE     FAIR      68  68 100 CALM      29.98S
CLEVELAND      FAIR      72  70  93 SW3       29.95F
GREENWOOD      MOCLDY    70  67  90 NE6       29.95F
GREENVILLE     MOCLDY    73  67  81 S3        29.95R
GRENADA        FAIR      68  68 100 W3        29.98R
OLIVE BRANCH   PTCLDY    68  68 100 NE6       30.00S
OXFORD         FAIR      66  64  94 E7        30.01R
TUNICA         PTCLDY    68  66  94 CALM      29.98S
$$

MSZ003>006-009-014>017-022>024-029>033-037>039-190400-
NORTHEAST MISSISSIPPI

CITY           SKY/WX    TMP DP  RH WIND       PRES   REMARKS
COLUMBUS AFB   CLOUDY    70  68  94 NE8       30.01R
CORINTH        DRIZZLE   70  66  88 S5        30.02R
GOLDN TRIANGLE CLOUDY    70  64  83 S5        29.98F
STARKVILLE     FAIR      70  68  94 CALM      29.99S
TUPELO         CLOUDY    69  66  90 E8        30.01S
$$

MSZ040-058-190400-
CENTRAL MISSISSIPPI

CITY           SKY/WX    TMP DP  RH WIND       PRES   REMARKS
JACKSON INTL   MOCLDY    70  67  90 SE10      29.97R
JACKSON HAWKNS MOCLDY    72  65  78 SE5       29.97S
MERIDIAN KEY   TSTM      72  70  93 W7        30.02R
MERIDIAN NAS   CLOUDY    71  69  93 NW3       30.00R
RAYMOND        FAIR      72  66  83 CALM      29.96S
VICKSBURG      CLOUDY    73  66  78 E7        29.95R
$$

MSZ059>079-190400-
SOUTH MISSISSIPPI

CITY           SKY/WX    TMP DP  RH WIND       PRES   REMARKS
BROOKHAVEN     FAIR      73  70  88 NE8G17    29.98R
COLUMBIA       MOCLDY    73  70  88 E3        29.96R
HATTIESBURG    CLOUDY    74  70  87 N6        29.99R
MCCOMB         CLOUDY    76  67  73 SW7       29.96R
NATCHEZ        CLOUDY    77  73  88 E5        29.94S
PINE BELT      CLOUDY   N/A N/A N/A N10       30.00R
$$

MSZ080>082-190400-
COASTAL MISSISSIPPI

CITY           SKY/WX    TMP DP  RH WIND       PRES   REMARKS
BILOXI         CLOUDY    74  72  94 S2        29.91F
PASCAGOULA     CLOUDY    72  69  90 NE5       29.93R
GULFPORT       CLOUDY    74  72  93 CALM      29.91F
$$


USA.gov is the U.S. government's official web portal to all federal, state and local government web resources and services.